Weather History for Superior, WI

Change the Weather History Date:

Wednesday, December 5, 2012

  Actual Average Record
Temperature  
Mean Temperature 21 °F -  
Max Temperature 36 °F 29 °F 48 °F (1960)
Min Temperature 7 °F 11 °F -11 °F (1955)
Degree Days  
Heating Degree Days 44    
Moisture  
Dew Point 13 °F    
Average Humidity 69    
Maximum Humidity 90    
Minimum Humidity 49    
Precipitation  
Precipitation 0.00 in - - ()
Sea Level Pressure  
Sea Level Pressure 30.21 in    
Wind  
Wind Speed 4 mph (SSE)    
Max Wind Speed 12 mph    
Max Gust Speed 20 mph    
Visibility 10 miles    
Events      
Averages and records for this station are not official NWS values.
T = Trace of Precipitation, MM = Missing Value Source: NWS Daily Summary

Daily Weather History Graph

Daily Weather History Graph

Search for Another Location

Airport:

Trip Planner

Search our weather history database for the weather conditions in past years. The results will help you decide how hot, cold, wet, or windy it might be!

Date:

Astronomy

Dec. 05, 2012 Rise Set
Actual Time 7:37 AM CST 4:20 PM CST
Civil Twilight 7:02 AM CST 4:55 PM CST
Nautical Twilight 6:24 AM CST 5:33 PM CST
Astronomical Twilight 5:47 AM CST 6:10 PM CST
Moon 11:29 PM CST (12/5) 11:44 AM CST (12/5)
Length of Visible Light 9h 52m
Length of Day
8h 43m
Waning Gibbous, 59% of the Moon is Illuminated
Dec 5
Waning Gibbous
Dec 6
Last Quarter
Dec 13
New
Dec 19
First Quarter
Dec 28
Full

Hourly Weather History & Observations

Time (CST) Temp. Windchill Dew Point Humidity Pressure Visibility Wind Dir Wind Speed Gust Speed Precip Events Conditions
12:15 AM 14.0 °F 6.5 °F 9.3 °F 82% 30.41 in 10.0 mi West 4.6 mph - N/A   Clear
12:35 AM 12.4 °F 4.6 °F 8.1 °F 83% 30.41 in 10.0 mi SW 4.6 mph - N/A   Clear
12:55 AM 12.2 °F 2.9 °F 8.4 °F 85% 30.41 in 10.0 mi SW 5.8 mph - N/A   Clear
1:15 AM 12.2 °F 4.3 °F 8.2 °F 84% 30.41 in 10.0 mi WSW 4.6 mph - N/A   Clear
1:55 AM 10.0 °F 0.4 °F 7.0 °F 87% 30.42 in 10.0 mi SW 5.8 mph - N/A   Clear
2:15 AM 10.8 °F 2.7 °F 7.5 °F 87% 30.42 in 10.0 mi WSW 4.6 mph - N/A   Clear
2:35 AM 9.3 °F 2.8 °F 6.3 °F 87% 30.42 in 10.0 mi SW 3.5 mph - N/A   Clear
2:55 AM 9.0 °F - 6.3 °F 89% 30.42 in 10.0 mi Calm Calm - N/A   Clear
3:15 AM 8.4 °F 1.8 °F 5.7 °F 89% 30.42 in 10.0 mi SSW 3.5 mph - N/A   Clear
3:35 AM 9.7 °F 1.4 °F 7.2 °F 90% 30.42 in 10.0 mi SW 4.6 mph - N/A   Clear
3:55 AM 9.9 °F - 6.8 °F 87% 30.42 in 10.0 mi Calm Calm - N/A   Clear
4:15 AM 8.6 °F 2.0 °F 5.7 °F 88% 30.42 in 10.0 mi SSW 3.5 mph - N/A   Clear
4:35 AM 8.6 °F 2.0 °F 5.9 °F 89% 30.42 in 10.0 mi SSW 3.5 mph - N/A   Clear
4:55 AM 7.0 °F -1.7 °F 4.5 °F 89% 30.42 in 10.0 mi SSW 4.6 mph - N/A   Clear
5:15 AM 8.2 °F 1.6 °F 5.5 °F 89% 30.42 in 10.0 mi South 3.5 mph - N/A   Clear
5:35 AM 7.0 °F - 4.5 °F 89% 30.41 in 10.0 mi Calm Calm - N/A   Clear
5:55 AM 9.1 °F - 6.6 °F 89% 30.41 in 10.0 mi Calm Calm - N/A   Clear
6:15 AM 9.0 °F - 6.4 °F 89% 30.41 in 10.0 mi Calm Calm - N/A   Clear
6:35 AM 9.3 °F - 6.4 °F 88% 30.41 in 10.0 mi Calm Calm - N/A   Clear
6:55 AM 8.2 °F - 5.5 °F 89% 30.40 in 10.0 mi Calm Calm - N/A   Clear
8:35 AM 12.4 °F - 9.5 °F 88% 30.41 in 10.0 mi Calm Calm - N/A   Clear
8:55 AM 13.5 °F - 10.2 °F 87% 30.41 in 10.0 mi Calm Calm - N/A   Clear
9:15 AM 14.9 °F - 11.3 °F 86% 30.40 in 10.0 mi Calm Calm - N/A   Clear
9:35 AM 15.6 °F - 11.8 °F 85% 30.40 in 10.0 mi Calm Calm - N/A   Clear
9:55 AM 17.2 °F - 13.1 °F 84% 30.40 in 10.0 mi Calm Calm - N/A   Clear
10:15 AM 19.4 °F 14.3 °F 14.7 °F 82% 30.39 in 10.0 mi SE 3.5 mph - N/A   Clear
10:35 AM 20.8 °F 16.0 °F 15.3 °F 79% 30.37 in 10.0 mi SSE 3.5 mph - N/A   Clear
10:55 AM 22.5 °F 15.1 °F 16.3 °F 77% 30.36 in 10.0 mi SSE 5.8 mph - N/A   Clear
11:15 AM 23.4 °F 18.9 °F 16.5 °F 75% 30.34 in 10.0 mi SE 3.5 mph - N/A   Clear
11:35 AM 25.5 °F 17.8 °F 16.9 °F 70% 30.32 in 10.0 mi SSE 6.9 mph - N/A   Clear
11:55 AM 26.6 °F 17.5 °F 16.0 °F 64% 30.30 in 10.0 mi South 9.2 mph - N/A   Clear
12:15 PM 27.3 °F 18.4 °F 15.4 °F 61% 30.29 in 10.0 mi South 9.2 mph - N/A   Clear
12:35 PM 27.7 °F 17.6 °F 15.3 °F 60% 30.28 in 10.0 mi South 11.5 mph - N/A   Clear
12:55 PM 28.0 °F 20.0 °F 15.6 °F 60% 30.25 in 10.0 mi SE 8.1 mph - N/A   Clear
1:15 PM 28.2 °F 20.2 °F 15.6 °F 59% 30.24 in 10.0 mi SSE 8.1 mph - N/A   Clear
1:35 PM 28.4 °F 22.2 °F 16.0 °F 60% 30.22 in 10.0 mi SE 5.8 mph - N/A   Clear
1:55 PM 29.3 °F 22.3 °F 16.0 °F 58% 30.20 in 10.0 mi SE 6.9 mph - N/A   Clear
2:15 PM 29.7 °F 24.7 °F 15.8 °F 56% 30.19 in 10.0 mi ESE 4.6 mph - N/A   Clear
2:35 PM 29.8 °F 22.2 °F 15.8 °F 56% 30.18 in 10.0 mi SE 8.1 mph - N/A   Clear
2:55 PM 30.0 °F 24.1 °F 16.0 °F 56% 30.16 in 10.0 mi SE 5.8 mph - N/A   Clear
3:15 PM 30.2 °F 25.4 °F 16.0 °F 56% 30.15 in 10.0 mi ESE 4.6 mph - N/A   Clear
3:35 PM 30.2 °F 24.3 °F 15.6 °F 55% 30.14 in 10.0 mi SE 5.8 mph - N/A   Mostly Cloudy
3:55 PM 30.2 °F 25.4 °F 15.6 °F 55% 30.13 in 10.0 mi SE 4.6 mph - N/A   Overcast
4:15 PM 30.2 °F 25.4 °F 15.4 °F 54% 30.12 in 10.0 mi SE 4.6 mph - N/A   Overcast
4:35 PM 30.2 °F 24.3 °F 15.8 °F 55% 30.10 in 10.0 mi East 5.8 mph - N/A   Overcast
4:55 PM 30.2 °F 24.3 °F 15.8 °F 55% 30.08 in 10.0 mi East 5.8 mph - N/A   Overcast
5:15 PM 29.7 °F 22.8 °F 15.8 °F 56% 30.06 in 10.0 mi East 6.9 mph - N/A   Overcast
5:35 PM 29.7 °F 24.7 °F 16.5 °F 58% 30.05 in 10.0 mi East 4.6 mph - N/A   Overcast
5:55 PM 29.3 °F 23.2 °F 16.3 °F 58% 30.04 in 10.0 mi East 5.8 mph - N/A   Overcast
6:15 PM 29.7 °F 23.7 °F 16.3 °F 58% 30.02 in 10.0 mi East 5.8 mph - N/A   Scattered Clouds
6:35 PM 29.7 °F 23.7 °F 16.3 °F 58% 30.01 in 10.0 mi East 5.8 mph - N/A   Scattered Clouds
6:55 PM 30.7 °F 26.0 °F 16.2 °F 55% 30.00 in 10.0 mi East 4.6 mph - N/A   Overcast
7:15 PM 31.3 °F 26.6 °F 15.8 °F 53% 29.97 in 10.0 mi SE 4.6 mph - N/A   Mostly Cloudy
7:35 PM 31.1 °F 25.4 °F 15.8 °F 53% 29.96 in 10.0 mi SE 5.8 mph - N/A   Scattered Clouds
7:55 PM 31.5 °F 28.1 °F 15.8 °F 52% 29.95 in 10.0 mi ESE 3.5 mph - N/A   Clear
8:15 PM 32.0 °F - 15.6 °F 51% 29.95 in 10.0 mi Calm Calm - N/A   Scattered Clouds
8:35 PM 32.0 °F 28.7 °F 16.0 °F 52% 29.95 in 10.0 mi South 3.5 mph - N/A   Scattered Clouds
8:55 PM 32.4 °F 27.9 °F 16.7 °F 53% 29.94 in 10.0 mi SSW 4.6 mph - N/A   Scattered Clouds
9:15 PM 32.5 °F 29.3 °F 17.4 °F 54% 29.94 in 10.0 mi SSW 3.5 mph - N/A   Scattered Clouds
9:35 PM 33.8 °F 26.4 °F 17.4 °F 51% 29.92 in 10.0 mi South 9.2 mph - N/A   Mostly Cloudy
9:55 PM 34.2 °F 27.5 °F 17.6 °F 51% 29.91 in 10.0 mi South 8.1 mph - N/A   Overcast
10:15 PM 34.7 °F 26.9 °F 17.4 °F 49% 29.89 in 10.0 mi SSW 10.4 mph 19.6 mph N/A   Overcast
10:35 PM 34.7 °F 26.4 °F 17.6 °F 50% 29.88 in 10.0 mi SSW 11.5 mph - N/A   Overcast
10:55 PM 35.2 °F 27.1 °F 17.8 °F 49% 29.86 in 10.0 mi SSW 11.5 mph - N/A   Overcast
11:15 PM 35.6 °F 28.0 °F 18.3 °F 50% 29.86 in 10.0 mi SSW 10.4 mph 18.4 mph N/A   Overcast
11:35 PM 35.8 °F 29.4 °F 18.5 °F 50% 29.85 in 10.0 mi SSW 8.1 mph - N/A   Mostly Cloudy
11:55 PM 36.3 °F 28.9 °F 19.0 °F 50% 29.84 in 10.0 mi SW 10.4 mph - N/A   Overcast